Regional Weather Roundup
Issued by NWS Charleston, SC

Current Version | Previous Version | Graphics & Text | Print | Product List | Glossary On
Versions: 1 2 3 4 5 6 7 8 9 10 11 12 13 14 15 16 17 18 19 20 21 22 23 24 25 26 27 28 29 30 31 32 33 34 35 36 37 38 39 40 41 42 43 44 45 46 47 48 49 50
000
ASUS42 KCHS 051327
RWRCHS

REGIONAL WEATHER ROUNDUP
NATIONAL WEATHER SERVICE CHARLESTON SC
900 AM EDT SAT SEP 05 2015

NOTE: "FAIR" INDICATES FEW OR NO CLOUDS BELOW 12,000 FEET WITH NO
SIGNIFICANT WEATHER AND/OR OBSTRUCTIONS TO VISIBILITY.

NOT ALL STATIONS ARE QUALITY CONTROLLED BY THE NATIONAL
WEATHER SERVICE. USE DATA WITH CAUTION...ESPECIALLY
DEWPOINT OBSERVATIONS.

SCZ027-030-031-034>040-042>050-051400-
...SOUTHEAST SOUTH CAROLINA...

CITY           SKY/WX    TMP DP  RH WIND       PRES   REMARKS
N CHARLESTON   MOSUNNY   75  69  81 N8        30.06R
WATERFRONT PRK   N/A     75  72  90 N10       30.03R
MOUNT PLEASANT FAIR      73  72  94 N6        30.06R FOG
JOHNS ISLAND   FAIR      77  72  83 N7        30.06S HAZE
PINOPOLIS        N/A     75  72  88 NE10      30.00R
MONCKS CORNER  PTSUNNY   75  70  83 NE3       30.08R HAZE
SUMMERVILLE    NOT AVBL
BEAUFORT MCAS  MOSUNNY   76  69  79 NE9       30.07R
BEAUFORT ARPT  FAIR      79  72  78 NE15      30.06S HAZE
HILTON HEAD IS MOSUNNY   77  70  78 N9        30.08R
WALTERBORO     MOSUNNY   79  70  73 N7        30.09R
ALLENDALE      FAIR      75  70  83 N7        30.08S

...SOUTHERN MIDLANDS AND PEE DEE...

CITY           SKY/WX    TMP DP  RH WIND       PRES   REMARKS
GEORGETOWN     NOT AVBL
KINGSTREE      NOT AVBL
ORANGEBURG     PTSUNNY   74  69  85 NE8       30.10R
BARNWELL       FAIR      77  72  83 NE10      30.10R
AIKEN          PTSUNNY   73  66  78 NE9       30.15R
MANNING        CLOUDY    72  70  94 N7        30.09S
COLUMBIA       CLOUDY    75  69  81 NE5       30.11R
SUMTER         PTSUNNY   75  72  88 NE12      30.09S
FLORENCE       PTSUNNY   75  71  87 NE10      30.11R
MYRTLE BEACH   PTSUNNY   75  70  83 N14       30.08R
N MYRTLE BEACH MOSUNNY   76  72  87 NE10      30.06R FOG

$$

GAZ063-065-086>088-099>101-113>116-118-119-134>141-150-051400-
...SOUTHEAST GEORGIA...

CITY           SKY/WX    TMP DP  RH WIND       PRES   REMARKS
SAVANNAH ARPT  MOSUNNY   76  70  82 NE8       30.07R
HUNTER AAF     SUNNY     77  76  99 NE8       30.04R
FORT STEWART   PTSUNNY   75  72  88 N9        30.05R
STATESBORO     SUNNY     77  75  95 E5        30.09R
SYLVANIA       NOT AVBL
CLAXTON        NOT AVBL

...CSRA...CENTRAL AND FAR SOUTHEAST GEORGIA...

CITY           SKY/WX    TMP DP  RH WIND       PRES   REMARKS
THOMSON        CLOUDY    74  73  95 N3        30.16R
AUGUSTA-BUSH   MOSUNNY   74  68  81 N3        30.09R
AUGUSTA-DANIEL MOSUNNY   75  67  76 N5        30.11R
SWAINSBORO     FAIR      75  70  83 E6        30.10R
VIDALIA        SUNNY     77  72  83 NE10      30.09R
EASTMAN        FAIR      78  77  95 E6        30.10R
HAZLEHURST     FAIR      78  74  86 E5        30.07R
ALMA           FAIR      75  72  90 NE5       30.06R
WAYCROSS       PTSUNNY   78  76  95 E5        30.06R
JESUP          FAIR      81  77  89 E5        30.06S
BAXLEY         FAIR      79  73  83 NE9       30.07R
BRUNSWICK      SUNNY     77  73  88 N5        30.05S
SAINT SIMONS   SUNNY     81  72  74 N6        30.04R

$$

SCZ027-028-034-036>038-045-046-048>050-GAZ119-141-051400-
...LAKE AND SUPPLEMENTAL COASTAL OBSERVATIONS...

STATION/POSITION TIME  TEMP    WIND        PRES    WAVE   SWELL
                       AIR SEA DIR/SP/G            HT/PER HT/PER/DIR
                 (UTC) (F)     (DEG/KT/KT) (MB)    (FT/S) (FT/S/D)
UPR LAKE MARION  NOT AVBL
WINYAH BAY       1245   73     350/  5     1017.0R
LAKE MURRAY      1200   72      CALM  /  6 1019.0R
ACE BASIN NERRS  NOT AVBL
FORT PULASKI     1300   78 83   20/ 10/ 14 1018.5R
SAPELO ISLAND    1300   80      20/  6     1017.0S

$$

ANZ835-935-AMZ111-154-330-350-352-354-370-450-454-472-051400-
...C-MAN AND BUOY OBSERVATIONS...

STATION/POSITION TIME  TEMP    WIND        PRES    WAVE   SWELL
                       AIR SEA DIR/SP/G            HT/PER HT/PER/DIR
                 (UTC) (F)     (DEG/KT/KT) (MB)    (FT/S) (FT/S/D)
BUOY 41004       1250   81 84   40/ 12/ 14 1016.6R   2/ 3
BUOY 41008       1250   80 84  240/  8/ 12 1017.4R   1/ 3
FOLLY BEACH CMAN 1300   75      10/  9/ 11 1017.9R
CAPERS NEARSHORE 1208   76      30/ 14/ 17 1017.9R
FRIPP NEARSHORE  1200   79      40/ 16/ 19 1016.9R


STATION/POSITION TIME  TEMP    WIND        PRES    WAVE   SWELL
                       AIR SEA DIR/SP/G            HT/PER HT/PER/DIR
                 (UTC) (F)     (DEG/KT/KT) (MB)    (FT/S) (FT/S/D)
5E ST. MARYS GA  1221      85                N/A     1/12
FRYING PAN BUOY  1250   81 82   20/ 16/ 17 1017.1R   3/ 4
BUOY 41025       1250   78 84  160/ 10/ 12 1017.6R   3/ 5   3/ 20/ 5
CAPE LOOKOUT NC  1300   79      30/ 15/ 20 1016.9R
BUOY 41002       1250   82 84   40/ 10/ 12 1015.4R   2/ 8   2/ 60/ 8
BUOY 41010       1220   83 85   30/  8/ 10 1015.4R
ST AUGUSTINE FL  1300   82 83   10/  5/  5 1017.1R


$$



USA.gov is the U.S. government's official web portal to all federal, state and local government web resources and services.